AC8AJ Weather Reports


time (UTC)temp
C
wind
direction
speed
KPH
gust
KPH
rain 1hr
cm
rain 24hr
cm
rain mn
cm
humidity
%
barometer
mb
20260906110100 21 0 0.0 1.6 0.00 0.00 0.00 94 1012.1
20260906104625 21 0 0.0 1.6 0.00 0.00 0.00 94 1011.8
20260906103055 21 0 0.0 0.0 0.00 0.00 0.00 94 1011.6
20260906101555 21 0 0.0 1.6 0.00 0.00 0.00 94 1011.4
20260906100057 21 155 0.0 3.2 0.00 0.00 0.00 93 1011.3
20260906094555 21 0 0.0 0.0 0.00 0.00 0.00 93 1011.2
20260906093107 21 0 0.0 0.0 0.00 0.00 0.00 93 1010.9
20260906091600 21 0 0.0 1.6 0.00 0.00 0.00 92 1011.2
20260906090058 21 0 0.0 1.6 0.00 0.00 0.00 92 1011.0
20260906084602 21 0 0.0 1.6 0.00 0.00 0.00 91 1011.2
20260906083102 21 0 0.0 1.6 0.00 0.00 0.00 90 1011.2
20260906081556 22 0 0.0 1.6 0.00 0.00 0.00 90 1011.3
20260906080057 22 0 0.0 1.6 0.00 0.00 0.00 89 1011.4
20260906074559 22 0 0.0 3.2 0.00 0.00 0.00 90 1011.3
20260906073058 22 210 0.0 3.2 0.00 0.00 0.00 89 1011.4
20260906071557 22 169 0.0 4.8 0.00 0.00 0.00 89 1011.4
20260906070110 22 207 1.6 6.4 0.00 0.00 0.00 88 1011.4
20260906064601 22 0 1.6 9.7 0.00 0.00 0.00 88 1011.5
20260906063057 22 0 0.0 1.6 0.00 0.00 0.00 87 1011.4
20260906061601 22 0 0.0 0.0 0.00 0.00 0.00 87 1011.3
20260906060105 22 0 0.0 0.0 0.00 0.00 0.00 87 1011.6
20260906054612 22 0 0.0 0.0 0.00 0.00 0.00 86 1011.6
20260906053056 22 0 0.0 1.6 0.00 0.00 0.00 86 1011.8
20260906051600 22 0 0.0 3.2 0.00 0.00 0.00 86 1011.5
20260906050123 22 0 0.0 0.0 0.00 0.00 0.00 87 1011.6
20260906044557 22 0 0.0 1.6 0.00 0.00 0.00 86 1011.3
20260906043102 23 55 0.0 3.2 0.00 0.00 0.00 87 1011.2
20260906041601 23 0 0.0 0.0 0.00 0.00 0.00 86 1011.2
20260906040115 23 0 0.0 0.0 0.00 0.00 0.00 85 1011.3
20260906034553 23 0 0.0 0.0 0.00 0.00 0.00 84 1011.2
20260906033110 23 0 0.0 0.0 0.00 0.00 0.00 82 1011.2
20260906031602 23 0 0.0 1.6 0.00 0.00 0.00 83 1011.4
20260906030056 23 55 0.0 1.6 0.00 0.00 0.00 81 1011.7
20260906024615 24 0 0.0 1.6 0.00 0.00 0.00 80 1011.8
20260906023100 25 0 0.0 0.0 0.00 0.00 0.00 78 1011.8
20260906021603 25 0 0.0 0.0 0.00 0.00 0.00 77 1011.8
20260906020059 25 0 0.0 1.6 0.00 0.00 0.00 77 1011.6
20260906014601 25 0 0.0 1.6 0.00 0.00 0.00 76 1011.5
20260906013056 25 0 0.0 1.6 0.00 0.00 0.00 76 1011.6
20260906011558 25 0 0.0 0.0 0.00 0.00 0.00 75 1011.3
20260906004602 25 0 0.0 0.0 0.00 0.00 0.00 75 1010.9
20260906003058 25 0 0.0 1.6 0.00 0.00 0.00 75 1011.0
20260906001554 25 0 0.0 1.6 0.00 0.00 0.00 75 1011.0
20260906000053 25 0 0.0 0.0 0.00 0.00 0.00 74 1011.0
20260905234612 26 0 0.0 0.0 0.00 0.00 0.00 73 1011.2
20260905233053 26 0 0.0 1.6 0.00 0.00 0.00 73 1011.1
20260905231555 26 0 0.0 1.6 0.00 0.00 0.00 73 1011.3
20260905230128 26 0 0.0 0.0 0.00 0.00 0.00 72 1011.3
20260905224554 27 0 0.0 1.6 0.00 0.00 0.00 71 1011.4
20260905223053 27 0 0.0 3.2 0.00 0.00 0.00 69 1011.3
20260905221557 28 55 0.0 3.2 0.00 0.00 0.00 66 1011.2
20260905220056 29 0 0.0 0.0 0.00 0.00 0.00 64 1011.2
20260905214558 29 0 0.0 1.6 0.00 0.00 0.00 62 1011.1
20260905213053 30 55 0.0 1.6 0.00 0.00 0.00 61 1011.0
20260905211558 31 63 0.0 3.2 0.00 0.00 0.00 60 1010.9
20260905210100 32 40 0.0 4.8 0.00 0.00 0.00 58 1010.8
20260905204556 32 0 0.0 6.4 0.00 0.00 0.00 57 1010.6
20260905203058 32 327 0.0 3.2 0.00 0.00 0.00 59 1010.9
20260905201554 32 0 0.0 4.8 0.00 0.00 0.00 58 1010.8
20260905200108 31 0 0.0 3.2 0.00 0.00 0.00 57 1010.9
20260905194555 32 0 0.0 3.2 0.00 0.00 0.00 56 1010.9
20260905193110 31 0 0.0 3.2 0.00 0.00 0.00 57 1011.3
20260905191554 31 0 0.0 3.2 0.00 0.00 0.00 58 1011.5
20260905190056 30 0 0.0 3.2 0.00 0.00 0.00 57 1011.8
20260905184604 29 0 0.0 1.6 0.00 0.00 0.00 59 1012.1
20260905183059 30 96 0.0 4.8 0.00 0.00 0.00 57 1012.4
20260905181604 30 69 0.0 3.2 0.00 0.00 0.00 61 1012.8
20260905174600 30 317 0.0 3.2 0.00 0.00 0.00 66 1012.5
20260905173101 29 0 0.0 1.6 0.00 0.00 0.00 68 1012.5
20260905171602 29 0 0.0 3.2 0.00 0.00 0.00 68 1012.6
20260905164606 26 0 1.6 4.8 0.00 0.00 0.00 73 1012.4
20260905163102 26 180 0.0 3.2 0.00 0.00 0.00 74 1012.7
20260905161556 26 183 0.0 4.8 0.00 0.00 0.00 76 1012.9
20260905160058 26 0 0.0 4.8 0.00 0.00 0.00 77 1012.7
20260905154607 25 184 3.2 6.4 0.00 0.00 0.00 78 1012.4
20260905153105 25 179 3.2 8.0 0.00 0.00 0.00 80 1012.8
20260905151604 23 189 1.6 9.7 0.00 0.00 0.00 85 1013.4
20260905144609 23 202 4.8 16.1 0.00 0.00 0.00 86 1014.4
20260905143056 22 150 0.0 9.7 0.00 0.00 0.00 87 1013.9
20260905141558 22 0 0.0 3.2 0.00 0.00 0.00 89 1014.1
20260905134552 22 0 0.0 3.2 0.00 0.00 0.00 92 1014.7
20260905133101 21 0 0.0 1.6 0.00 0.00 0.00 91 1014.7
20260905131557 21 0 0.0 3.2 0.00 0.00 0.00 91 1014.5
20260905130105 21 56 1.6 6.4 0.00 0.00 0.00 91 1014.5
20260905124554 22 54 1.6 4.8 0.00 0.00 0.00 89 1014.2
20260905123102 22 63 3.2 8.0 0.00 0.00 0.00 86 1013.5
20260905121601 22 194 3.2 11.3 0.00 0.00 0.00 87 1012.5
20260905120055 22 278 1.6 4.8 0.00 0.00 0.00 88 1012.6
20260905114559 22 214 3.2 9.7 0.00 0.00 0.00 88 1012.2
20260905113104 22 209 1.6 6.4 0.00 0.00 0.00 89 1012.4
20260905111552 22 221 1.6 6.4 0.00 0.00 0.00 89 1012.1